Rifle, CO

2:48 PM MDT on March 30, 2017 (GMT -0600)
Garfield County Regional

Weather History for KRIL - August, 2014

Change the Weather History Date:

Tuesday, August 26, 2014

  Actual Average Record
Temperature  
Mean Temperature 64 °F 68 °F  
Max Temperature 74 °F 86 °F 98 °F (1937)
Min Temperature 53 °F 51 °F 35 °F (1962)
Degree Days  
Heating Degree Days 1 0  
Month to date heating degree days 12 0  
Since 1 June heating degree days 52 60  
Since 1 July heating degree days 12 1  
Cooling Degree Days 0 4  
Month to date cooling degree days 129 159  
Year to date cooling degree days 522 502  
Since 1 June cooling degree days 508 495  
Growing Degree Days 14 (Base 50)    
Moisture  
Dew Point 52 °F    
Average Humidity 65    
Maximum Humidity 89    
Minimum Humidity 41    
Precipitation  
Precipitation 0.25 in 0.04 in 0.59 in (1914)
Month to date precipitation 2.06 1.14  
Year to date precipitation 7.54 8.71  
Sea Level Pressure  
Sea Level Pressure 30.09 in    
Wind  
Wind Speed 8 mph (NNW)    
Max Wind Speed 40 mph    
Max Gust Speed 49 mph    
Visibility 10 miles    
Events Rain , Thunderstorm    
T = Trace of Precipitation, MM = Missing Value Source: NWS Daily Summary

Daily Weather History Graph

Daily Weather History Graph

Search for Another Location

Airport or City:

Trip Planner

Search our weather history database for the weather conditions in past years. The results will help you decide how hot, cold, wet, or windy it might be!

Date:

Astronomy

Aug. 26, 2014 Rise Set
Actual Time 6:33 AM MDT 7:50 PM MDT
Civil Twilight 6:05 AM MDT 8:18 PM MDT
Nautical Twilight 5:32 AM MDT 8:52 PM MDT
Astronomical Twilight 4:57 AM MDT 9:27 PM MDT
Moon 7:36 AM MDT (8/26) 8:14 PM MDT (8/26)
Length of Visible Light 14h 13m
Length of Day
13h 17m
New Moon, 1% of the Moon is Illuminated
Aug 26
New Moon
Sep 2
First Quarter
Sep 8
Full
Sep 15
Last Quarter
Sep 24
New

Hourly Weather History & Observations

Time (MDT) Temp. Dew Point Humidity Pressure Visibility Wind Dir Wind Speed Gust Speed Precip Events Conditions
12:53 AM 64.0 °F 50.0 °F 60% 29.97 in 10.0 mi NW 10.4 mph - N/A   Clear
1:53 AM 60.1 °F 50.0 °F 69% 29.98 in 10.0 mi Variable 3.5 mph - N/A   Clear
3:53 AM 55.9 °F 48.9 °F 77% 29.97 in 10.0 mi East 6.9 mph - N/A   Clear
4:53 AM 54.0 °F 50.0 °F 86% 30.00 in 10.0 mi Calm Calm - N/A   Clear
6:53 AM 55.0 °F 48.9 °F 80% 30.04 in 10.0 mi North 3.5 mph - N/A   Clear
7:53 AM 55.9 °F 48.9 °F 77% 30.08 in 10.0 mi SSW 4.6 mph - N/A   Clear
9:53 AM 64.0 °F 48.0 °F 56% 30.08 in 10.0 mi NE 4.6 mph - N/A   Mostly Cloudy
10:53 AM 66.9 °F 48.9 °F 52% 30.08 in 10.0 mi North 3.5 mph - N/A   Partly Cloudy
11:53 AM 73.0 °F 48.9 °F 42% 30.04 in 10.0 mi NNW 3.5 mph - N/A   Clear
12:34 PM 69.1 °F 51.1 °F 53% 30.23 in 10.0 mi West 12.7 mph - 0.00 in Rain , Thunderstorm Light Rain
12:53 PM 61.0 °F 53.1 °F 75% 30.10 in 2.0 mi WSW 31.1 mph 49.5 mph 0.10 in Rain , Thunderstorm Heavy Thunderstorms and Rain
1:02 PM 61.0 °F 53.1 °F 75% 30.26 in 9.0 mi West 21.9 mph 35.7 mph 0.01 in Rain , Thunderstorm Light Thunderstorms and Rain
1:17 PM 61.0 °F 54.0 °F 78% 30.26 in 10.0 mi NNW 6.9 mph - 0.02 in Rain , Thunderstorm Light Rain
1:28 PM 63.0 °F 52.0 °F 67% 30.26 in 10.0 mi Variable 3.5 mph - 0.02 in   Mostly Cloudy
1:53 PM 62.1 °F 55.9 °F 80% 30.12 in 10.0 mi ESE 10.4 mph - 0.02 in   Partly Cloudy
3:53 PM 64.9 °F 53.1 °F 65% 30.08 in 10.0 mi ENE 4.6 mph - N/A   Mostly Cloudy
4:53 PM 66.0 °F 53.1 °F 63% 30.07 in 10.0 mi East 4.6 mph - 0.00 in   Scattered Clouds
5:53 PM 68.0 °F 53.1 °F 59% 30.06 in 10.0 mi NW 3.5 mph - N/A   Clear
6:53 PM 68.0 °F 54.0 °F 61% 30.04 in 10.0 mi Calm Calm - N/A   Overcast
7:53 PM 64.9 °F 55.0 °F 70% 30.05 in 10.0 mi ENE 3.5 mph - N/A   Clear
8:53 PM 64.0 °F 57.0 °F 78% 30.05 in 10.0 mi East 3.5 mph - N/A   Partly Cloudy
9:53 PM 64.0 °F 54.0 °F 70% 30.07 in 10.0 mi West 9.2 mph - N/A   Overcast
10:53 PM 60.1 °F 52.0 °F 75% 30.09 in 10.0 mi West 20.7 mph - 0.00 in Rain Light Rain
11:53 PM 57.0 °F 53.1 °F 87% 30.10 in 7.0 mi West 13.8 mph - 0.04 in Rain Light Rain